owner,sensor,date,latitude,longitude,air_temperature,qcFlag 
WAVCIS,ioos:station:WAVCIS:CSI15:1,2012-04-01T00:00:00Z,28.8332,-90.8320,24.88,11111222 
WAVCIS,ioos:station:WAVCIS:CSI15:1,2012-04-01T01:00:00Z,28.8332,-90.8320,24.54,11111222 
WAVCIS,ioos:station:WAVCIS:CSI15:1,2012-04-01T02:00:00Z,28.8332,-90.8320,24.46,11111222 
WAVCIS,ioos:station:WAVCIS:CSI15:1,2012-04-01T03:00:00Z,28.8332,-90.8320,24.4,11111222 
WAVCIS,ioos:station:WAVCIS:CSI15:1,2012-04-01T04:00:00Z,28.8332,-90.8320,24.27,11111222 
WAVCIS,ioos:station:WAVCIS:CSI15:1,2012-04-01T05:00:00Z,28.8332,-90.8320,24.08,11111222 
WAVCIS,ioos:station:WAVCIS:CSI15:1,2012-04-01T06:00:00Z,28.8332,-90.8320,23.85,11111222 
WAVCIS,ioos:station:WAVCIS:CSI15:1,2012-04-01T07:00:00Z,28.8332,-90.8320,23.77,11111222 
WAVCIS,ioos:station:WAVCIS:CSI15:1,2012-04-01T08:00:00Z,28.8332,-90.8320,23.88,11111222 
WAVCIS,ioos:station:WAVCIS:CSI15:1,2012-04-01T09:00:00Z,28.8332,-90.8320,23.86,11111222 
WAVCIS,ioos:station:WAVCIS:CSI15:1,2012-04-01T10:00:00Z,28.8332,-90.8320,23.84,11111222 
WAVCIS,ioos:station:WAVCIS:CSI15:1,2012-04-01T11:00:00Z,28.8332,-90.8320,23.81,11111222 
WAVCIS,ioos:station:WAVCIS:CSI15:1,2012-04-01T12:00:00Z,28.8332,-90.8320,23.64,11111222 
WAVCIS,ioos:station:WAVCIS:CSI15:1,2012-04-01T13:00:00Z,28.8332,-90.8320,23.88,11111222 
WAVCIS,ioos:station:WAVCIS:CSI15:1,2012-04-01T14:00:00Z,28.8332,-90.8320,24.06,11111222 
WAVCIS,ioos:station:WAVCIS:CSI15:1,2012-04-01T15:00:00Z,28.8332,-90.8320,24.24,11111222 
WAVCIS,ioos:station:WAVCIS:CSI15:1,2012-04-01T16:00:00Z,28.8332,-90.8320,24.46,11111222 
WAVCIS,ioos:station:WAVCIS:CSI15:1,2012-04-01T17:00:00Z,28.8332,-90.8320,24.62,11111222 
WAVCIS,ioos:station:WAVCIS:CSI15:1,2012-04-01T18:00:00Z,28.8332,-90.8320,24.72,11111222 
WAVCIS,ioos:station:WAVCIS:CSI15:1,2012-04-01T19:00:00Z,28.8332,-90.8320,24.9,11111222 
WAVCIS,ioos:station:WAVCIS:CSI15:1,2012-04-01T20:00:00Z,28.8332,-90.8320,25.0,11111222 
WAVCIS,ioos:station:WAVCIS:CSI15:1,2012-04-01T21:00:00Z,28.8332,-90.8320,25.12,11111222 
WAVCIS,ioos:station:WAVCIS:CSI15:1,2012-04-01T22:00:00Z,28.8332,-90.8320,25.14,11111222 
WAVCIS,ioos:station:WAVCIS:CSI15:1,2012-04-01T23:00:00Z,28.8332,-90.8320,26.3,11111222 
WAVCIS,ioos:station:WAVCIS:CSI15:1,2012-04-02T00:00:00Z,28.8332,-90.8320,27.49,11111222 
WAVCIS,ioos:station:WAVCIS:CSI15:1,2012-04-02T01:00:00Z,28.8332,-90.8320,25.79,11111222 
WAVCIS,ioos:station:WAVCIS:CSI15:1,2012-04-02T02:00:00Z,28.8332,-90.8320,24.8,11111222 
WAVCIS,ioos:station:WAVCIS:CSI15:1,2012-04-02T03:00:00Z,28.8332,-90.8320,25.08,11111222 
WAVCIS,ioos:station:WAVCIS:CSI15:1,2012-04-02T04:00:00Z,28.8332,-90.8320,24.65,11111222 
WAVCIS,ioos:station:WAVCIS:CSI15:1,2012-04-02T05:00:00Z,28.8332,-90.8320,24.78,11111222 
WAVCIS,ioos:station:WAVCIS:CSI15:1,2012-04-02T06:00:00Z,28.8332,-90.8320,24.72,11111222 
WAVCIS,ioos:station:WAVCIS:CSI15:1,2012-04-02T07:00:00Z,28.8332,-90.8320,24.67,11111222 
WAVCIS,ioos:station:WAVCIS:CSI15:1,2012-04-02T08:00:00Z,28.8332,-90.8320,24.65,11111222 
WAVCIS,ioos:station:WAVCIS:CSI15:1,2012-04-02T09:00:00Z,28.8332,-90.8320,24.41,11111222 
WAVCIS,ioos:station:WAVCIS:CSI15:1,2012-04-02T10:00:00Z,28.8332,-90.8320,24.38,11111222 
WAVCIS,ioos:station:WAVCIS:CSI15:1,2012-04-02T11:00:00Z,28.8332,-90.8320,24.4,11111222 
WAVCIS,ioos:station:WAVCIS:CSI15:1,2012-04-02T12:00:00Z,28.8332,-90.8320,24.36,11111222 
WAVCIS,ioos:station:WAVCIS:CSI15:1,2012-04-02T13:00:00Z,28.8332,-90.8320,27.23,11111222 
WAVCIS,ioos:station:WAVCIS:CSI15:1,2012-04-02T14:00:00Z,28.8332,-90.8320,27.89,11111222 
WAVCIS,ioos:station:WAVCIS:CSI15:1,2012-04-02T15:00:00Z,28.8332,-90.8320,25.8,11111222 
WAVCIS,ioos:station:WAVCIS:CSI15:1,2012-04-02T16:00:00Z,28.8332,-90.8320,24.96,11111222 
WAVCIS,ioos:station:WAVCIS:CSI15:1,2012-04-02T17:00:00Z,28.8332,-90.8320,24.71,11111222 
WAVCIS,ioos:station:WAVCIS:CSI15:1,2012-04-02T18:00:00Z,28.8332,-90.8320,24.72,11111222 
WAVCIS,ioos:station:WAVCIS:CSI15:1,2012-04-02T19:00:00Z,28.8332,-90.8320,24.94,11111222 
WAVCIS,ioos:station:WAVCIS:CSI15:1,2012-04-02T20:00:00Z,28.8332,-90.8320,25.0,11111222 
WAVCIS,ioos:station:WAVCIS:CSI15:1,2012-04-02T21:00:00Z,28.8332,-90.8320,25.06,11111222 
WAVCIS,ioos:station:WAVCIS:CSI15:1,2012-04-02T22:00:00Z,28.8332,-90.8320,24.97,11111222 
WAVCIS,ioos:station:WAVCIS:CSI15:1,2012-04-02T23:00:00Z,28.8332,-90.8320,25.08,11111222 
WAVCIS,ioos:station:WAVCIS:CSI15:1,2012-04-03T00:00:00Z,28.8332,-90.8320,25.02,11111222 
WAVCIS,ioos:station:WAVCIS:CSI15:1,2012-04-03T01:00:00Z,28.8332,-90.8320,25.04,11111222 
WAVCIS,ioos:station:WAVCIS:CSI15:1,2012-04-03T02:00:00Z,28.8332,-90.8320,23.98,11111222 
WAVCIS,ioos:station:WAVCIS:CSI15:1,2012-04-03T03:00:00Z,28.8332,-90.8320,23.78,11111222 
WAVCIS,ioos:station:WAVCIS:CSI15:1,2012-04-03T04:00:00Z,28.8332,-90.8320,24.34,11111222 
WAVCIS,ioos:station:WAVCIS:CSI15:1,2012-04-03T05:00:00Z,28.8332,-90.8320,25.35,11111222 
WAVCIS,ioos:station:WAVCIS:CSI15:1,2012-04-03T06:00:00Z,28.8332,-90.8320,22.61,11111222 
WAVCIS,ioos:station:WAVCIS:CSI15:1,2012-04-03T07:00:00Z,28.8332,-90.8320,22.38,11111222 
WAVCIS,ioos:station:WAVCIS:CSI15:1,2012-04-03T08:00:00Z,28.8332,-90.8320,23.36,11111222 
WAVCIS,ioos:station:WAVCIS:CSI15:1,2012-04-03T09:00:00Z,28.8332,-90.8320,23.09,11111222 
WAVCIS,ioos:station:WAVCIS:CSI15:1,2012-04-03T10:00:00Z,28.8332,-90.8320,23.08,11111222 
WAVCIS,ioos:station:WAVCIS:CSI15:1,2012-04-03T11:00:00Z,28.8332,-90.8320,23.43,11111222 
WAVCIS,ioos:station:WAVCIS:CSI15:1,2012-04-03T12:00:00Z,28.8332,-90.8320,23.95,11111222 
WAVCIS,ioos:station:WAVCIS:CSI15:1,2012-04-03T13:00:00Z,28.8332,-90.8320,24.24,11111222 
WAVCIS,ioos:station:WAVCIS:CSI15:1,2012-04-03T14:00:00Z,28.8332,-90.8320,24.11,11111222 
WAVCIS,ioos:station:WAVCIS:CSI15:1,2012-04-03T15:00:00Z,28.8332,-90.8320,24.77,11111222 
WAVCIS,ioos:station:WAVCIS:CSI15:1,2012-04-03T16:00:00Z,28.8332,-90.8320,25.92,11111222 
WAVCIS,ioos:station:WAVCIS:CSI15:1,2012-04-03T17:00:00Z,28.8332,-90.8320,26.19,11111222 
WAVCIS,ioos:station:WAVCIS:CSI15:1,2012-04-03T18:00:00Z,28.8332,-90.8320,25.22,11111222 
WAVCIS,ioos:station:WAVCIS:CSI15:1,2012-04-03T19:00:00Z,28.8332,-90.8320,25.36,11111222 
WAVCIS,ioos:station:WAVCIS:CSI15:1,2012-04-03T20:00:00Z,28.8332,-90.8320,25.86,11111222 
WAVCIS,ioos:station:WAVCIS:CSI15:1,2012-04-03T21:00:00Z,28.8332,-90.8320,26.29,11111222 
WAVCIS,ioos:station:WAVCIS:CSI15:1,2012-04-03T22:00:00Z,28.8332,-90.8320,26.25,11111222 
WAVCIS,ioos:station:WAVCIS:CSI15:1,2012-04-03T23:00:00Z,28.8332,-90.8320,25.69,11111222 
WAVCIS,ioos:station:WAVCIS:CSI15:1,2012-04-04T00:00:00Z,28.8332,-90.8320,25.93,11111222 
WAVCIS,ioos:station:WAVCIS:CSI15:1,2012-04-04T01:00:00Z,28.8332,-90.8320,26.95,11111222 
WAVCIS,ioos:station:WAVCIS:CSI15:1,2012-04-04T02:00:00Z,28.8332,-90.8320,28.35,11111222 
WAVCIS,ioos:station:WAVCIS:CSI15:1,2012-04-04T03:00:00Z,28.8332,-90.8320,26.35,11111222 
WAVCIS,ioos:station:WAVCIS:CSI15:1,2012-04-04T04:00:00Z,28.8332,-90.8320,37.54,11111222 
WAVCIS,ioos:station:WAVCIS:CSI15:1,2012-04-04T05:00:00Z,28.8332,-90.8320,36.29,11111222 
WAVCIS,ioos:station:WAVCIS:CSI15:1,2012-04-04T06:00:00Z,28.8332,-90.8320,37.63,11111222 
WAVCIS,ioos:station:WAVCIS:CSI15:1,2012-04-04T07:00:00Z,28.8332,-90.8320,38.1,11111222 
WAVCIS,ioos:station:WAVCIS:CSI15:1,2012-04-04T08:00:00Z,28.8332,-90.8320,34.17,11111222 
WAVCIS,ioos:station:WAVCIS:CSI15:1,2012-04-04T09:00:00Z,28.8332,-90.8320,36.97,11111222 
WAVCIS,ioos:station:WAVCIS:CSI15:1,2012-04-04T10:00:00Z,28.8332,-90.8320,36.92,11111222 
WAVCIS,ioos:station:WAVCIS:CSI15:1,2012-04-04T11:00:00Z,28.8332,-90.8320,26.72,11111222 
WAVCIS,ioos:station:WAVCIS:CSI15:1,2012-04-04T12:00:00Z,28.8332,-90.8320,37.08,11111222 
WAVCIS,ioos:station:WAVCIS:CSI15:1,2012-04-04T13:00:00Z,28.8332,-90.8320,21.75,11111222 
WAVCIS,ioos:station:WAVCIS:CSI15:1,2012-04-04T14:00:00Z,28.8332,-90.8320,22.75,11111222 
WAVCIS,ioos:station:WAVCIS:CSI15:1,2012-04-04T15:00:00Z,28.8332,-90.8320,34.28,11111222 
WAVCIS,ioos:station:WAVCIS:CSI15:1,2012-04-04T16:00:00Z,28.8332,-90.8320,34.37,11111222 
WAVCIS,ioos:station:WAVCIS:CSI15:1,2012-04-04T17:00:00Z,28.8332,-90.8320,36.25,11111222 
WAVCIS,ioos:station:WAVCIS:CSI15:1,2012-04-04T18:00:00Z,28.8332,-90.8320,35.52,11111222 
WAVCIS,ioos:station:WAVCIS:CSI15:1,2012-04-04T19:00:00Z,28.8332,-90.8320,35.55,11111222 
WAVCIS,ioos:station:WAVCIS:CSI15:1,2012-04-04T20:00:00Z,28.8332,-90.8320,32.67,11111222 
WAVCIS,ioos:station:WAVCIS:CSI15:1,2012-04-04T21:00:00Z,28.8332,-90.8320,33.72,11111222 
WAVCIS,ioos:station:WAVCIS:CSI15:1,2012-04-04T22:00:00Z,28.8332,-90.8320,30.97,11111222 
WAVCIS,ioos:station:WAVCIS:CSI15:1,2012-04-04T23:00:00Z,28.8332,-90.8320,32.04,11111222 
WAVCIS,ioos:station:WAVCIS:CSI15:1,2012-04-05T00:00:00Z,28.8332,-90.8320,31.47,11111222 
WAVCIS,ioos:station:WAVCIS:CSI15:1,2012-04-05T01:00:00Z,28.8332,-90.8320,30.07,11111222 
WAVCIS,ioos:station:WAVCIS:CSI15:1,2012-04-05T02:00:00Z,28.8332,-90.8320,34.19,11111222 
WAVCIS,ioos:station:WAVCIS:CSI15:1,2012-04-05T03:00:00Z,28.8332,-90.8320,33.97,11111222 
WAVCIS,ioos:station:WAVCIS:CSI15:1,2012-04-05T04:00:00Z,28.8332,-90.8320,34.08,11111222 
WAVCIS,ioos:station:WAVCIS:CSI15:1,2012-04-05T05:00:00Z,28.8332,-90.8320,33.93,11111222 
WAVCIS,ioos:station:WAVCIS:CSI15:1,2012-04-05T06:00:00Z,28.8332,-90.8320,27.01,11111222 
WAVCIS,ioos:station:WAVCIS:CSI15:1,2012-04-05T07:00:00Z,28.8332,-90.8320,29.46,11111222 
WAVCIS,ioos:station:WAVCIS:CSI15:1,2012-04-05T08:00:00Z,28.8332,-90.8320,29.47,11111222 
WAVCIS,ioos:station:WAVCIS:CSI15:1,2012-04-05T09:00:00Z,28.8332,-90.8320,31.85,11111222 
WAVCIS,ioos:station:WAVCIS:CSI15:1,2012-04-05T10:00:00Z,28.8332,-90.8320,30.34,11111222 
WAVCIS,ioos:station:WAVCIS:CSI15:1,2012-04-05T11:00:00Z,28.8332,-90.8320,30.37,11111222 
WAVCIS,ioos:station:WAVCIS:CSI15:1,2012-04-05T12:00:00Z,28.8332,-90.8320,24.82,11111222 
WAVCIS,ioos:station:WAVCIS:CSI15:1,2012-04-05T13:00:00Z,28.8332,-90.8320,30.29,11111222 
WAVCIS,ioos:station:WAVCIS:CSI15:1,2012-04-05T14:00:00Z,28.8332,-90.8320,32.17,11111222 
WAVCIS,ioos:station:WAVCIS:CSI15:1,2012-04-05T15:00:00Z,28.8332,-90.8320,31.73,11111222 
WAVCIS,ioos:station:WAVCIS:CSI15:1,2012-04-05T16:00:00Z,28.8332,-90.8320,33.59,11111222 
WAVCIS,ioos:station:WAVCIS:CSI15:1,2012-04-05T17:00:00Z,28.8332,-90.8320,30.91,11111222 
WAVCIS,ioos:station:WAVCIS:CSI15:1,2012-04-05T18:00:00Z,28.8332,-90.8320,32.87,11111222 
WAVCIS,ioos:station:WAVCIS:CSI15:1,2012-04-05T19:00:00Z,28.8332,-90.8320,33.12,11111222 
WAVCIS,ioos:station:WAVCIS:CSI15:1,2012-04-05T20:00:00Z,28.8332,-90.8320,33.26,11111222 
WAVCIS,ioos:station:WAVCIS:CSI15:1,2012-04-05T21:00:00Z,28.8332,-90.8320,34.03,11111222 
WAVCIS,ioos:station:WAVCIS:CSI15:1,2012-04-05T22:00:00Z,28.8332,-90.8320,33.55,11111222 
WAVCIS,ioos:station:WAVCIS:CSI15:1,2012-04-05T23:00:00Z,28.8332,-90.8320,33.83,11111222 
WAVCIS,ioos:station:WAVCIS:CSI15:1,2012-04-06T00:00:00Z,28.8332,-90.8320,32.87,11111222 
WAVCIS,ioos:station:WAVCIS:CSI15:1,2012-04-06T01:00:00Z,28.8332,-90.8320,31.62,11111222 
WAVCIS,ioos:station:WAVCIS:CSI15:1,2012-04-06T02:00:00Z,28.8332,-90.8320,33.89,11111222 
WAVCIS,ioos:station:WAVCIS:CSI15:1,2012-04-06T03:00:00Z,28.8332,-90.8320,27.41,11111222 
WAVCIS,ioos:station:WAVCIS:CSI15:1,2012-04-06T04:00:00Z,28.8332,-90.8320,32.6,11111222 
WAVCIS,ioos:station:WAVCIS:CSI15:1,2012-04-06T05:00:00Z,28.8332,-90.8320,30.59,11111222 
WAVCIS,ioos:station:WAVCIS:CSI15:1,2012-04-06T06:00:00Z,28.8332,-90.8320,30.99,11111222 
WAVCIS,ioos:station:WAVCIS:CSI15:1,2012-04-06T07:00:00Z,28.8332,-90.8320,31.03,11111222 
WAVCIS,ioos:station:WAVCIS:CSI15:1,2012-04-06T08:00:00Z,28.8332,-90.8320,32.1,11111222 
WAVCIS,ioos:station:WAVCIS:CSI15:1,2012-04-06T09:00:00Z,28.8332,-90.8320,30.6,11111222 
WAVCIS,ioos:station:WAVCIS:CSI15:1,2012-04-06T10:00:00Z,28.8332,-90.8320,28.98,11111222 
WAVCIS,ioos:station:WAVCIS:CSI15:1,2012-04-06T11:00:00Z,28.8332,-90.8320,29.7,11111222 
WAVCIS,ioos:station:WAVCIS:CSI15:1,2012-04-06T12:00:00Z,28.8332,-90.8320,26.34,11111222 
WAVCIS,ioos:station:WAVCIS:CSI15:1,2012-04-06T13:00:00Z,28.8332,-90.8320,26.3,11111222 
WAVCIS,ioos:station:WAVCIS:CSI15:1,2012-04-06T14:00:00Z,28.8332,-90.8320,29.12,11111222 
WAVCIS,ioos:station:WAVCIS:CSI15:1,2012-04-06T15:00:00Z,28.8332,-90.8320,29.31,11111222 
WAVCIS,ioos:station:WAVCIS:CSI15:1,2012-04-06T16:00:00Z,28.8332,-90.8320,24.25,11111222 
WAVCIS,ioos:station:WAVCIS:CSI15:1,2012-04-06T17:00:00Z,28.8332,-90.8320,28.25,11111222 
WAVCIS,ioos:station:WAVCIS:CSI15:1,2012-04-06T18:00:00Z,28.8332,-90.8320,30.71,11111222 
WAVCIS,ioos:station:WAVCIS:CSI15:1,2012-04-06T19:00:00Z,28.8332,-90.8320,29.37,11111222 
WAVCIS,ioos:station:WAVCIS:CSI15:1,2012-04-06T20:00:00Z,28.8332,-90.8320,30.84,11111222 
WAVCIS,ioos:station:WAVCIS:CSI15:1,2012-04-06T21:00:00Z,28.8332,-90.8320,31.58,11111222 
WAVCIS,ioos:station:WAVCIS:CSI15:1,2012-04-06T22:00:00Z,28.8332,-90.8320,33.65,11111222 
WAVCIS,ioos:station:WAVCIS:CSI15:1,2012-04-06T23:00:00Z,28.8332,-90.8320,33.05,11111222 
WAVCIS,ioos:station:WAVCIS:CSI15:1,2012-04-07T00:00:00Z,28.8332,-90.8320,35.3,11111222 
WAVCIS,ioos:station:WAVCIS:CSI15:1,2012-04-07T01:00:00Z,28.8332,-90.8320,34.11,11111222 
WAVCIS,ioos:station:WAVCIS:CSI15:1,2012-04-07T02:00:00Z,28.8332,-90.8320,34.25,11111222 
WAVCIS,ioos:station:WAVCIS:CSI15:1,2012-04-07T03:00:00Z,28.8332,-90.8320,36.82,11111222 
WAVCIS,ioos:station:WAVCIS:CSI15:1,2012-04-07T04:00:00Z,28.8332,-90.8320,34.18,11111222 
WAVCIS,ioos:station:WAVCIS:CSI15:1,2012-04-07T05:00:00Z,28.8332,-90.8320,33.23,11111222 
WAVCIS,ioos:station:WAVCIS:CSI15:1,2012-04-07T06:00:00Z,28.8332,-90.8320,33.27,11111222 
WAVCIS,ioos:station:WAVCIS:CSI15:1,2012-04-07T07:00:00Z,28.8332,-90.8320,32.7,11111222 
WAVCIS,ioos:station:WAVCIS:CSI15:1,2012-04-07T08:00:00Z,28.8332,-90.8320,32.1,11111222 
WAVCIS,ioos:station:WAVCIS:CSI15:1,2012-04-07T09:00:00Z,28.8332,-90.8320,31.91,11111222 
WAVCIS,ioos:station:WAVCIS:CSI15:1,2012-04-07T10:00:00Z,28.8332,-90.8320,26.75,11111222 
WAVCIS,ioos:station:WAVCIS:CSI15:1,2012-04-07T11:00:00Z,28.8332,-90.8320,25.36,11111222 
WAVCIS,ioos:station:WAVCIS:CSI15:1,2012-04-07T12:00:00Z,28.8332,-90.8320,31.17,11111222 
WAVCIS,ioos:station:WAVCIS:CSI15:1,2012-04-07T13:00:00Z,28.8332,-90.8320,31.76,11111222 
WAVCIS,ioos:station:WAVCIS:CSI15:1,2012-04-07T14:00:00Z,28.8332,-90.8320,31.53,11111222 
WAVCIS,ioos:station:WAVCIS:CSI15:1,2012-04-07T15:00:00Z,28.8332,-90.8320,31.52,11111222 
WAVCIS,ioos:station:WAVCIS:CSI15:1,2012-04-07T16:00:00Z,28.8332,-90.8320,31.14,11111222 
WAVCIS,ioos:station:WAVCIS:CSI15:1,2012-04-07T17:00:00Z,28.8332,-90.8320,31.05,11111222 
WAVCIS,ioos:station:WAVCIS:CSI15:1,2012-04-07T18:00:00Z,28.8332,-90.8320,31.23,11111222 
WAVCIS,ioos:station:WAVCIS:CSI15:1,2012-04-07T19:00:00Z,28.8332,-90.8320,30.43,11111222 
WAVCIS,ioos:station:WAVCIS:CSI15:1,2012-04-07T20:00:00Z,28.8332,-90.8320,30.2,11111222 
WAVCIS,ioos:station:WAVCIS:CSI15:1,2012-04-07T21:00:00Z,28.8332,-90.8320,31.16,11111222 
WAVCIS,ioos:station:WAVCIS:CSI15:1,2012-04-07T22:00:00Z,28.8332,-90.8320,31.21,11111222 
WAVCIS,ioos:station:WAVCIS:CSI15:1,2012-04-07T23:00:00Z,28.8332,-90.8320,31.17,11111222 
WAVCIS,ioos:station:WAVCIS:CSI15:1,2012-04-08T00:00:00Z,28.8332,-90.8320,29.29,11111222 
WAVCIS,ioos:station:WAVCIS:CSI15:1,2012-04-08T01:00:00Z,28.8332,-90.8320,30.78,11111222 
WAVCIS,ioos:station:WAVCIS:CSI15:1,2012-04-08T02:00:00Z,28.8332,-90.8320,30.79,11111222 
WAVCIS,ioos:station:WAVCIS:CSI15:1,2012-04-08T03:00:00Z,28.8332,-90.8320,30.79,11111222 
WAVCIS,ioos:station:WAVCIS:CSI15:1,2012-04-08T04:00:00Z,28.8332,-90.8320,30.62,11111222 
WAVCIS,ioos:station:WAVCIS:CSI15:1,2012-04-08T05:00:00Z,28.8332,-90.8320,30.39,11111222 
WAVCIS,ioos:station:WAVCIS:CSI15:1,2012-04-08T06:00:00Z,28.8332,-90.8320,30.52,11111222 
WAVCIS,ioos:station:WAVCIS:CSI15:1,2012-04-08T07:00:00Z,28.8332,-90.8320,29.93,11111222 
WAVCIS,ioos:station:WAVCIS:CSI15:1,2012-04-08T08:00:00Z,28.8332,-90.8320,29.67,11111222 
WAVCIS,ioos:station:WAVCIS:CSI15:1,2012-04-08T09:00:00Z,28.8332,-90.8320,29.78,11111222 
WAVCIS,ioos:station:WAVCIS:CSI15:1,2012-04-08T10:00:00Z,28.8332,-90.8320,30.93,11111222 
WAVCIS,ioos:station:WAVCIS:CSI15:1,2012-04-08T11:00:00Z,28.8332,-90.8320,29.97,11111222 
WAVCIS,ioos:station:WAVCIS:CSI15:1,2012-04-08T12:00:00Z,28.8332,-90.8320,29.52,11111222 
WAVCIS,ioos:station:WAVCIS:CSI15:1,2012-04-08T13:00:00Z,28.8332,-90.8320,30.04,11111222 
WAVCIS,ioos:station:WAVCIS:CSI15:1,2012-04-08T14:00:00Z,28.8332,-90.8320,30.41,11111222 
WAVCIS,ioos:station:WAVCIS:CSI15:1,2012-04-08T15:00:00Z,28.8332,-90.8320,30.41,11111222 
WAVCIS,ioos:station:WAVCIS:CSI15:1,2012-04-08T16:00:00Z,28.8332,-90.8320,29.93,11111222 
WAVCIS,ioos:station:WAVCIS:CSI15:1,2012-04-08T17:00:00Z,28.8332,-90.8320,30.16,11111222 
WAVCIS,ioos:station:WAVCIS:CSI15:1,2012-04-08T18:00:00Z,28.8332,-90.8320,30.04,11111222 
WAVCIS,ioos:station:WAVCIS:CSI15:1,2012-04-08T19:00:00Z,28.8332,-90.8320,30.44,11111222 
WAVCIS,ioos:station:WAVCIS:CSI15:1,2012-04-08T20:00:00Z,28.8332,-90.8320,22.78,11111222 
WAVCIS,ioos:station:WAVCIS:CSI15:1,2012-04-08T21:00:00Z,28.8332,-90.8320,23.09,11111222 
WAVCIS,ioos:station:WAVCIS:CSI15:1,2012-04-08T22:00:00Z,28.8332,-90.8320,23.28,11111222 
WAVCIS,ioos:station:WAVCIS:CSI15:1,2012-04-08T23:00:00Z,28.8332,-90.8320,23.28,11111222 
WAVCIS,ioos:station:WAVCIS:CSI15:1,2012-04-09T00:00:00Z,28.8332,-90.8320,23.02,11111222 
WAVCIS,ioos:station:WAVCIS:CSI15:1,2012-04-09T01:00:00Z,28.8332,-90.8320,22.52,11111222 
WAVCIS,ioos:station:WAVCIS:CSI15:1,2012-04-09T02:00:00Z,28.8332,-90.8320,22.46,11111222 
WAVCIS,ioos:station:WAVCIS:CSI15:1,2012-04-09T03:00:00Z,28.8332,-90.8320,22.32,11111222 
WAVCIS,ioos:station:WAVCIS:CSI15:1,2012-04-09T04:00:00Z,28.8332,-90.8320,22.34,11111222 
WAVCIS,ioos:station:WAVCIS:CSI15:1,2012-04-09T05:00:00Z,28.8332,-90.8320,22.4,11111222 
WAVCIS,ioos:station:WAVCIS:CSI15:1,2012-04-09T06:00:00Z,28.8332,-90.8320,22.28,11111222 
WAVCIS,ioos:station:WAVCIS:CSI15:1,2012-04-09T07:00:00Z,28.8332,-90.8320,21.77,11111222 
WAVCIS,ioos:station:WAVCIS:CSI15:1,2012-04-09T08:00:00Z,28.8332,-90.8320,25.53,11111222 
WAVCIS,ioos:station:WAVCIS:CSI15:1,2012-04-09T09:00:00Z,28.8332,-90.8320,26.22,11111222 
WAVCIS,ioos:station:WAVCIS:CSI15:1,2012-04-09T10:00:00Z,28.8332,-90.8320,24.9,11111222 
WAVCIS,ioos:station:WAVCIS:CSI15:1,2012-04-09T11:00:00Z,28.8332,-90.8320,25.69,11111222 
WAVCIS,ioos:station:WAVCIS:CSI15:1,2012-04-09T12:00:00Z,28.8332,-90.8320,26.81,11111222 
WAVCIS,ioos:station:WAVCIS:CSI15:1,2012-04-09T13:00:00Z,28.8332,-90.8320,22.51,11111222 
WAVCIS,ioos:station:WAVCIS:CSI15:1,2012-04-09T14:00:00Z,28.8332,-90.8320,22.53,11111222 
WAVCIS,ioos:station:WAVCIS:CSI15:1,2012-04-09T15:00:00Z,28.8332,-90.8320,23.36,11111222 
WAVCIS,ioos:station:WAVCIS:CSI15:1,2012-04-09T16:00:00Z,28.8332,-90.8320,23.85,11111222 
WAVCIS,ioos:station:WAVCIS:CSI15:1,2012-04-09T17:00:00Z,28.8332,-90.8320,23.04,11111222 
WAVCIS,ioos:station:WAVCIS:CSI15:1,2012-04-09T18:00:00Z,28.8332,-90.8320,23.33,11111222 
WAVCIS,ioos:station:WAVCIS:CSI15:1,2012-04-09T19:00:00Z,28.8332,-90.8320,23.75,11111222 
WAVCIS,ioos:station:WAVCIS:CSI15:1,2012-04-09T20:00:00Z,28.8332,-90.8320,24.04,11111222 
WAVCIS,ioos:station:WAVCIS:CSI15:1,2012-04-09T21:00:00Z,28.8332,-90.8320,24.64,11111222 
WAVCIS,ioos:station:WAVCIS:CSI15:1,2012-04-09T22:00:00Z,28.8332,-90.8320,25.07,11111222 
WAVCIS,ioos:station:WAVCIS:CSI15:1,2012-04-09T23:00:00Z,28.8332,-90.8320,26.35,11111222 
WAVCIS,ioos:station:WAVCIS:CSI15:1,2012-04-10T00:00:00Z,28.8332,-90.8320,25.25,11111222 
WAVCIS,ioos:station:WAVCIS:CSI15:1,2012-04-10T01:00:00Z,28.8332,-90.8320,24.18,11111222 
WAVCIS,ioos:station:WAVCIS:CSI15:1,2012-04-10T02:00:00Z,28.8332,-90.8320,24.58,11111222 
WAVCIS,ioos:station:WAVCIS:CSI15:1,2012-04-10T03:00:00Z,28.8332,-90.8320,26.37,11111222 
WAVCIS,ioos:station:WAVCIS:CSI15:1,2012-04-10T04:00:00Z,28.8332,-90.8320,25.01,11111222 
WAVCIS,ioos:station:WAVCIS:CSI15:1,2012-04-10T05:00:00Z,28.8332,-90.8320,26.25,11111222 
WAVCIS,ioos:station:WAVCIS:CSI15:1,2012-04-10T06:00:00Z,28.8332,-90.8320,26.64,11111222 
WAVCIS,ioos:station:WAVCIS:CSI15:1,2012-04-10T07:00:00Z,28.8332,-90.8320,26.26,11111222 
WAVCIS,ioos:station:WAVCIS:CSI15:1,2012-04-10T08:00:00Z,28.8332,-90.8320,26.55,11111222 
WAVCIS,ioos:station:WAVCIS:CSI15:1,2012-04-10T09:00:00Z,28.8332,-90.8320,28.12,11111222 
WAVCIS,ioos:station:WAVCIS:CSI15:1,2012-04-10T10:00:00Z,28.8332,-90.8320,24.93,11111222 
WAVCIS,ioos:station:WAVCIS:CSI15:1,2012-04-10T11:00:00Z,28.8332,-90.8320,25.63,11111222 
WAVCIS,ioos:station:WAVCIS:CSI15:1,2012-04-10T12:00:00Z,28.8332,-90.8320,23.81,11111222 
WAVCIS,ioos:station:WAVCIS:CSI15:1,2012-04-10T13:00:00Z,28.8332,-90.8320,23.33,11111222 
WAVCIS,ioos:station:WAVCIS:CSI15:1,2012-04-10T14:00:00Z,28.8332,-90.8320,23.41,11111222 
WAVCIS,ioos:station:WAVCIS:CSI15:1,2012-04-10T15:00:00Z,28.8332,-90.8320,25.07,11111222 
WAVCIS,ioos:station:WAVCIS:CSI15:1,2012-04-10T16:00:00Z,28.8332,-90.8320,25.09,11111222 
WAVCIS,ioos:station:WAVCIS:CSI15:1,2012-04-10T17:00:00Z,28.8332,-90.8320,24.39,11111222 
WAVCIS,ioos:station:WAVCIS:CSI15:1,2012-04-10T18:00:00Z,28.8332,-90.8320,26.54,11111222 
WAVCIS,ioos:station:WAVCIS:CSI15:1,2012-04-10T19:00:00Z,28.8332,-90.8320,24.67,11111222 
WAVCIS,ioos:station:WAVCIS:CSI15:1,2012-04-10T20:00:00Z,28.8332,-90.8320,24.81,11111222 
WAVCIS,ioos:station:WAVCIS:CSI15:1,2012-04-10T21:00:00Z,28.8332,-90.8320,25.39,11111222 
WAVCIS,ioos:station:WAVCIS:CSI15:1,2012-04-10T22:00:00Z,28.8332,-90.8320,25.55,11111222 
WAVCIS,ioos:station:WAVCIS:CSI15:1,2012-04-10T23:00:00Z,28.8332,-90.8320,24.83,11111222 
WAVCIS,ioos:station:WAVCIS:CSI15:1,2012-04-11T00:00:00Z,28.8332,-90.8320,24.87,11111222 
WAVCIS,ioos:station:WAVCIS:CSI15:1,2012-04-11T01:00:00Z,28.8332,-90.8320,24.83,11111222 
WAVCIS,ioos:station:WAVCIS:CSI15:1,2012-04-11T02:00:00Z,28.8332,-90.8320,24.86,11111222 
WAVCIS,ioos:station:WAVCIS:CSI15:1,2012-04-11T03:00:00Z,28.8332,-90.8320,24.82,11111222 
WAVCIS,ioos:station:WAVCIS:CSI15:1,2012-04-11T04:00:00Z,28.8332,-90.8320,24.64,11111222 
WAVCIS,ioos:station:WAVCIS:CSI15:1,2012-04-11T05:00:00Z,28.8332,-90.8320,24.52,11111222 
WAVCIS,ioos:station:WAVCIS:CSI15:1,2012-04-11T06:00:00Z,28.8332,-90.8320,24.37,11111222 
WAVCIS,ioos:station:WAVCIS:CSI15:1,2012-04-11T07:00:00Z,28.8332,-90.8320,24.27,11111222 
WAVCIS,ioos:station:WAVCIS:CSI15:1,2012-04-11T08:00:00Z,28.8332,-90.8320,24.13,11111222 
WAVCIS,ioos:station:WAVCIS:CSI15:1,2012-04-11T09:00:00Z,28.8332,-90.8320,24.13,11111222 
WAVCIS,ioos:station:WAVCIS:CSI15:1,2012-04-11T10:00:00Z,28.8332,-90.8320,24.1,11111222 
WAVCIS,ioos:station:WAVCIS:CSI15:1,2012-04-11T11:00:00Z,28.8332,-90.8320,24.27,11111222 
WAVCIS,ioos:station:WAVCIS:CSI15:1,2012-04-11T12:00:00Z,28.8332,-90.8320,24.23,11111222 
WAVCIS,ioos:station:WAVCIS:CSI15:1,2012-04-11T13:00:00Z,28.8332,-90.8320,24.15,11111222 
WAVCIS,ioos:station:WAVCIS:CSI15:1,2012-04-11T14:00:00Z,28.8332,-90.8320,24.19,11111222 
WAVCIS,ioos:station:WAVCIS:CSI15:1,2012-04-11T15:00:00Z,28.8332,-90.8320,23.93,11111222 
WAVCIS,ioos:station:WAVCIS:CSI15:1,2012-04-11T16:00:00Z,28.8332,-90.8320,23.98,11111222 
WAVCIS,ioos:station:WAVCIS:CSI15:1,2012-04-11T17:00:00Z,28.8332,-90.8320,24.31,11111222 
WAVCIS,ioos:station:WAVCIS:CSI15:1,2012-04-11T18:00:00Z,28.8332,-90.8320,24.67,11111222 
WAVCIS,ioos:station:WAVCIS:CSI15:1,2012-04-11T19:00:00Z,28.8332,-90.8320,25.0,11111222 
WAVCIS,ioos:station:WAVCIS:CSI15:1,2012-04-11T20:00:00Z,28.8332,-90.8320,25.38,11111222 
WAVCIS,ioos:station:WAVCIS:CSI15:1,2012-04-11T21:00:00Z,28.8332,-90.8320,35.36,11111222 
WAVCIS,ioos:station:WAVCIS:CSI15:1,2012-04-11T22:00:00Z,28.8332,-90.8320,30.52,11111222 
WAVCIS,ioos:station:WAVCIS:CSI15:1,2012-04-11T23:00:00Z,28.8332,-90.8320,29.41,11111222 
WAVCIS,ioos:station:WAVCIS:CSI15:1,2012-04-12T00:00:00Z,28.8332,-90.8320,27.83,11111222 
WAVCIS,ioos:station:WAVCIS:CSI15:1,2012-04-12T01:00:00Z,28.8332,-90.8320,26.15,11111222 
WAVCIS,ioos:station:WAVCIS:CSI15:1,2012-04-12T02:00:00Z,28.8332,-90.8320,36.61,11111222 
WAVCIS,ioos:station:WAVCIS:CSI15:1,2012-04-12T03:00:00Z,28.8332,-90.8320,28.74,11111222 
WAVCIS,ioos:station:WAVCIS:CSI15:1,2012-04-12T04:00:00Z,28.8332,-90.8320,35.04,11111222 